Skagway, AK

11:36 AM AKDT on July 22, 2017 (GMT -0800)
Skagway

Weather History for PAGY - January, 2012

Change the Weather History Date:

Wednesday, January 25, 2012

  Actual Average Record
Temperature  
Mean Temperature 32 °F -  
Max Temperature 36 °F 27 °F 46 °F (2015)
Min Temperature 28 °F 20 °F -5 °F (1984)
Degree Days  
Heating Degree Days 33    
Moisture  
Dew Point 26 °F    
Average Humidity 79    
Maximum Humidity 93    
Minimum Humidity 54    
Precipitation  
Precipitation 0.06 in - - ()
Sea Level Pressure  
Sea Level Pressure 29.08 in    
Wind  
Wind Speed 17 mph (SSW)    
Max Wind Speed 37 mph    
Max Gust Speed 56 mph    
Visibility 4 miles    
Events Snow    
Averages and records for this station are not official NWS values.
T = Trace of Precipitation, MM = Missing Value Source: NWS Daily Summary

Daily Weather History Graph

Daily Weather History Graph

Search for Another Location

Airport or City:

Trip Planner

Search our weather history database for the weather conditions in past years. The results will help you decide how hot, cold, wet, or windy it might be!

Date:

Astronomy

Jan. 25, 2012 Rise Set
Actual Time 8:27 AM AKST 4:00 PM AKST
Civil Twilight 7:39 AM AKST 4:48 PM AKST
Nautical Twilight 6:48 AM AKST 5:39 PM AKST
Astronomical Twilight 5:59 AM AKST 6:28 PM AKST
Moon 8:37 AM AKST (1/25) 8:01 PM AKST (1/25)
Length of Visible Light 9h 09m
Length of Day
7h 32m
Waxing Crescent, 7% of the Moon is Illuminated
Jan 25
Waxing Crescent
Jan 30
First Quarter
Feb 7
Full
Feb 14
Last Quarter
Feb 21
New

Hourly Weather History & Observations

Time (AKST) Temp. Windchill Dew Point Humidity Pressure Visibility Wind Dir Wind Speed Gust Speed Precip Events Conditions
12:53 AM 28.0 °F 22.8 °F 21.9 °F 78% 28.58 in 6.0 mi NNW 4.6 mph - 0.00 in Snow Light Snow
1:30 AM 28.4 °F 21.2 °F 21.2 °F 74% 28.57 in 7.0 mi Variable 6.9 mph - 0.00 in Snow Light Snow
1:53 AM 28.9 °F 23.9 °F 21.9 °F 75% 28.57 in 3.0 mi NNW 4.6 mph - 0.00 in Snow Light Snow
2:05 AM 28.4 °F 17.5 °F 21.2 °F 74% 28.56 in 5.0 mi NNE 13.8 mph 17.3 mph 0.00 in Snow Light Snow
3:30 AM 28.4 °F - 21.2 °F 74% 28.64 in 2.5 mi Calm Calm - 0.00 in Snow Light Snow
3:34 AM 28.4 °F 22.2 °F 23.0 °F 80% 28.65 in 1.8 mi SW 5.8 mph - 0.00 in Snow Light Snow
3:39 AM 28.4 °F - 23.0 °F 80% 28.66 in 1.0 mi Calm Calm - 0.00 in Snow Light Snow
3:48 AM 28.4 °F 22.2 °F 24.8 °F 86% 28.67 in 0.8 mi South 5.8 mph - 0.01 in Snow Light Snow
3:53 AM 28.0 °F 21.7 °F 25.0 °F 88% 28.69 in 1.0 mi South 5.8 mph - 0.01 in Snow Light Snow
4:01 AM 28.4 °F 21.2 °F 24.8 °F 86% 28.70 in 1.2 mi South 6.9 mph - 0.01 in Snow Light Snow
4:21 AM 28.4 °F 19.1 °F 26.6 °F 93% 28.73 in 1.0 mi SSW 10.4 mph - 0.02 in Snow Light Snow
4:30 AM 28.4 °F 20.4 °F 26.6 °F 93% 28.73 in 1.5 mi NE 8.1 mph - 0.02 in Snow Light Snow
4:42 AM 28.4 °F 22.2 °F 24.8 °F 86% 28.76 in 2.5 mi Variable 5.8 mph - 0.02 in Snow Light Snow
4:53 AM 28.9 °F 15.4 °F 26.1 °F 89% 28.77 in 2.5 mi SSW 21.9 mph 26.5 mph 0.02 in Snow Light Snow
5:04 AM 28.4 °F 14.7 °F 26.6 °F 93% 28.78 in 2.5 mi SSW 21.9 mph 31.1 mph 0.00 in Snow Light Snow
5:26 AM 32.0 °F 18.9 °F 28.4 °F 87% 28.80 in 5.0 mi SSW 24.2 mph 34.5 mph 0.01 in Snow Light Snow
5:39 AM 35.6 °F 23.2 °F 26.6 °F 70% 28.81 in 8.0 mi SSW 26.5 mph 40.3 mph 0.01 in Snow Light Snow
5:53 AM 36.0 °F 25.6 °F 23.0 °F 59% 28.84 in 6.0 mi SSW 18.4 mph 38.0 mph 0.01 in Snow Light Snow
6:53 AM 33.1 °F 18.4 °F 27.0 °F 78% 28.93 in 2.0 mi SSW 33.4 mph 50.6 mph 0.02 in Snow Light Snow
7:03 AM 33.8 °F 21.0 °F 26.6 °F 75% 28.95 in 6.0 mi SSW 25.3 mph 39.1 mph 0.00 in Snow Light Snow
7:15 AM 33.8 °F 21.9 °F 26.6 °F 75% 28.96 in 4.0 mi SSW 21.9 mph 42.6 mph 0.00 in Snow Light Snow
7:38 AM 33.8 °F 19.6 °F 28.4 °F 81% 28.97 in 3.0 mi SSW 32.2 mph 56.4 mph 0.00 in Snow Light Snow
7:53 AM 33.1 °F 23.4 °F 24.1 °F 70% 28.99 in 7.0 mi SSW 13.8 mph 44.9 mph 0.00 in Snow Light Snow
8:29 AM 32.0 °F 21.6 °F 26.6 °F 80% 29.02 in 2.5 mi SSW 15.0 mph 44.9 mph 0.00 in Snow Light Snow
8:38 AM 33.8 °F 21.0 °F 24.8 °F 70% 29.02 in 5.0 mi SSW 25.3 mph 34.5 mph 0.00 in Snow Light Snow
8:53 AM 33.1 °F 18.4 °F 27.0 °F 78% 29.02 in 9.0 mi SSW 33.4 mph 44.9 mph 0.00 in   Overcast
9:33 AM 33.8 °F 19.0 °F 28.4 °F 81% 29.04 in 3.0 mi SSW 35.7 mph 44.9 mph 0.00 in Snow Light Snow
9:44 AM 33.8 °F 21.9 °F 26.6 °F 75% 29.06 in 1.8 mi SSW 21.9 mph 36.8 mph 0.00 in Snow Light Snow
9:53 AM 33.1 °F 19.6 °F 26.1 °F 75% 29.07 in 1.8 mi SSW 27.6 mph 39.1 mph 0.00 in Snow Light Snow
9:58 AM 33.8 °F 19.2 °F 26.6 °F 75% 29.06 in 3.0 mi SSW 34.5 mph 41.4 mph 0.00 in Snow Light Snow
10:21 AM 33.8 °F 18.8 °F 28.4 °F 81% 29.08 in 7.0 mi SW 36.8 mph 46.0 mph 0.00 in Snow Light Snow
10:53 AM 35.1 °F 24.5 °F 25.0 °F 67% 29.12 in 9.0 mi SSW 18.4 mph 34.5 mph 0.00 in   Mostly Cloudy
11:53 AM 34.0 °F 19.5 °F 28.9 °F 82% 29.15 in 8.0 mi SSW 34.5 mph 50.6 mph 0.00 in Snow Light Snow
12:53 PM 36.0 °F 23.0 °F 28.0 °F 73% 29.19 in 9.0 mi SSW 29.9 mph 40.3 mph 0.00 in Snow Light Snow
1:53 PM 35.1 °F 23.5 °F 26.1 °F 70% 29.24 in 9.0 mi SSW 21.9 mph 32.2 mph 0.00 in   Mostly Cloudy
2:26 PM 33.8 °F 20.3 °F 28.4 °F 81% 29.25 in 1.8 mi SSW 28.8 mph 41.4 mph 0.00 in Snow Light Snow
2:29 PM 33.8 °F 20.1 °F 28.4 °F 81% 29.24 in 1.0 mi SSW 29.9 mph 41.4 mph 0.00 in Snow Light Snow
2:38 PM 33.8 °F 20.1 °F 28.4 °F 81% 29.25 in 2.0 mi SSW 29.9 mph 40.3 mph 0.00 in Snow Light Snow
2:40 PM 33.8 °F 19.6 °F 28.4 °F 81% 29.25 in 4.0 mi SSW 32.2 mph 42.6 mph 0.00 in Snow Light Snow
2:44 PM 33.8 °F 19.9 °F 28.4 °F 81% 29.25 in 1.8 mi SSW 31.1 mph 42.6 mph 0.00 in Snow Light Snow
2:51 PM 32.0 °F 18.6 °F 28.4 °F 87% 29.25 in 0.8 mi SSW 25.3 mph 40.3 mph 0.00 in Snow Light Snow
2:52 PM 32.0 °F 19.8 °F 28.9 °F 88% 29.26 in 0.8 mi SSW 20.7 mph 40.3 mph 0.00 in Snow Light Snow
2:55 PM 32.0 °F 21.6 °F 28.4 °F 87% 29.26 in 1.0 mi SSW 15.0 mph 36.8 mph 0.00 in Snow Light Snow
3:01 PM 33.8 °F 24.8 °F 28.4 °F 81% 29.26 in 2.0 mi SSW 12.7 mph 20.7 mph 0.00 in Snow Light Snow
3:09 PM 33.8 °F 24.8 °F 26.6 °F 75% 29.25 in 5.0 mi SSW 12.7 mph 20.7 mph 0.00 in Snow Light Snow
3:53 PM 34.0 °F 22.1 °F 28.0 °F 79% 29.25 in 6.0 mi South 21.9 mph 38.0 mph 0.00 in Snow Light Snow
4:02 PM 33.8 °F 20.3 °F 28.4 °F 81% 29.24 in 2.5 mi SSW 28.8 mph 36.8 mph 0.00 in Snow Light Snow
4:07 PM 32.0 °F 20.5 °F 28.4 °F 87% 29.25 in 1.2 mi SSW 18.4 mph 36.8 mph 0.00 in Snow Light Snow
4:13 PM 32.0 °F 23.0 °F 28.4 °F 87% 29.24 in 1.5 mi SSW 11.5 mph 24.2 mph 0.00 in Snow Light Snow
4:16 PM 33.8 °F 23.9 °F 28.4 °F 81% 29.25 in 2.0 mi SSW 15.0 mph 25.3 mph 0.00 in Snow Light Snow
4:23 PM 33.8 °F 21.9 °F 28.4 °F 81% 29.24 in 8.0 mi SSW 21.9 mph 42.6 mph 0.00 in Snow Light Snow
4:44 PM 33.8 °F 20.3 °F 26.6 °F 75% 29.23 in 10.0 mi SSW 28.8 mph 38.0 mph 0.00 in   Overcast
4:53 PM 34.0 °F 19.3 °F 27.0 °F 75% 29.23 in 10.0 mi SSW 35.7 mph 46.0 mph 0.00 in   Overcast
5:13 PM 33.8 °F 19.9 °F 28.4 °F 81% 29.23 in 2.5 mi SSW 31.1 mph 41.4 mph 0.00 in Snow Light Snow
5:29 PM 33.8 °F 19.2 °F 28.4 °F 81% 29.23 in 6.0 mi SSW 34.5 mph 42.6 mph 0.00 in Snow Light Snow
5:48 PM 33.8 °F 19.4 °F 28.4 °F 81% 29.24 in 5.0 mi SSW 33.4 mph 43.7 mph 0.00 in Snow Light Snow
5:53 PM 33.1 °F 19.6 °F 28.9 °F 85% 29.24 in 4.0 mi SSW 27.6 mph 42.6 mph 0.00 in Snow Light Snow
6:00 PM 33.8 °F 21.6 °F 28.4 °F 81% 29.25 in 3.0 mi SSW 23.0 mph 40.3 mph 0.00 in Snow Light Snow
6:15 PM 33.8 °F 23.2 °F 28.4 °F 81% 29.25 in 8.0 mi SSW 17.3 mph 28.8 mph 0.00 in Snow Light Snow
6:35 PM 33.8 °F 20.1 °F 24.8 °F 70% 29.26 in 1.8 mi SSW 29.9 mph 46.0 mph 0.00 in Snow Light Snow
6:46 PM 32.0 °F 20.1 °F 28.4 °F 87% 29.27 in 3.0 mi SSW 19.6 mph 26.5 mph 0.00 in Snow Light Snow
6:53 PM 33.1 °F 20.3 °F 28.9 °F 85% 29.27 in 9.0 mi SSW 24.2 mph 38.0 mph 0.00 in Snow Light Snow
7:53 PM 34.0 °F 24.6 °F 19.0 °F 54% 29.28 in 10.0 mi South 13.8 mph 23.0 mph 0.00 in   Clear
8:28 PM 32.0 °F 17.6 °F 24.8 °F 75% 29.29 in 1.8 mi SSW 29.9 mph 41.4 mph 0.00 in Snow Light Snow
8:38 PM 30.2 °F 14.9 °F 26.6 °F 86% 29.28 in 3.0 mi SSW 31.1 mph 42.6 mph 0.00 in Snow Light Snow
8:53 PM 32.0 °F 17.4 °F 26.1 °F 79% 29.29 in 10.0 mi SW 31.1 mph 39.1 mph 0.00 in   Mostly Cloudy
9:53 PM 32.0 °F 24.2 °F 17.1 °F 54% 29.33 in 10.0 mi SSW 9.2 mph 32.2 mph N/A   Mostly Cloudy
10:53 PM 32.0 °F 17.2 °F 23.0 °F 69% 29.33 in 10.0 mi SW 32.2 mph 40.3 mph N/A   Mostly Cloudy
11:29 PM 30.2 °F 14.3 °F 24.8 °F 80% 29.35 in 1.8 mi SSW 34.5 mph 41.4 mph 0.00 in Snow Light Snow
11:33 PM 30.2 °F 14.9 °F 24.8 °F 80% 29.35 in 1.2 mi SSW 31.1 mph 41.4 mph 0.00 in Snow Light Snow
11:46 PM 30.2 °F 18.1 °F 26.6 °F 86% 29.36 in 1.5 mi SSW 18.4 mph 31.1 mph 0.00 in Snow Light Snow
11:49 PM 30.2 °F 17.8 °F 26.6 °F 86% 29.36 in 3.0 mi SSW 19.6 mph 28.8 mph 0.00 in Snow Light Snow
11:53 PM 30.0 °F 17.5 °F 26.1 °F 85% 29.37 in 5.0 mi SSW 19.6 mph 29.9 mph 0.00 in Snow Light Snow